{"data":{"norad_id":63022,"intl_designator":"2025-032T","name":"STARLINK-32944","alt_names":[],"object_type":"PAYLOAD","status":"ACTIVE","operator":null,"country":"US","launch_date":"2025-02-15","launch_site_code":"AFETR","launch_vehicle":null,"mission":null,"orbit_class":"UNKNOWN","rcs_meters":null,"size_class":null,"mass_kg":null,"dimensions":null,"purposes":["comms"],"wikipedia_slug":null,"has_3d_model":false,"image_url":null,"decayed_at":null,"tle_current":{"epoch":"2026-09-21T02:51:51.901344Z","epoch_age_seconds":112094,"freshness":"FRESH","line1":"1 63022U 25032T   26264.11935071  .00011709  00000+0  43422-3 0  9997","line2":"2 63022  43.0007 312.7837 0000844 277.1099  82.9656 15.27590378 90508","mean_motion":15.27590378,"eccentricity":8.44e-5,"inclination_deg":43.0007,"raan_deg":312.7837,"arg_perigee_deg":277.1099,"mean_anomaly_deg":82.9656,"bstar":0.00043422,"rev_number":9050,"period_min":94.26610829307,"perigee_km":482.43893926637,"apogee_km":483.59710223387,"semimajor_km":6861.1550207501,"source":"CELESTRAK","updated_at":"2026-09-22T09:00:49.742321Z"}}}